TimeCDT,TemperatureF,Dew PointF,Humidity,Sea Level PressureIn,VisibilityMPH,Wind Direction,Wind SpeedMPH,Gust SpeedMPH,PrecipitationIn,Events,Conditions,WindDirDegrees,DateUTC
12:53 AM,66.9,52.0,59,30.03,10.0,SE,5.8,-,N/A,,Clear,130,2013-07-13 05:53:00
1:53 AM,63.0,52.0,67,30.03,10.0,SE,3.5,-,N/A,,Clear,140,2013-07-13 06:53:00
2:53 AM,64.0,52.0,65,30.03,10.0,Calm,Calm,-,N/A,,Clear,0,2013-07-13 07:53:00
3:53 AM,61.0,52.0,72,30.03,10.0,Calm,Calm,-,N/A,,Clear,0,2013-07-13 08:53:00
4:53 AM,62.1,53.1,72,30.04,10.0,SE,3.5,-,N/A,,Clear,140,2013-07-13 09:53:00
5:53 AM,60.1,53.1,78,30.04,10.0,Calm,Calm,-,N/A,,Clear,0,2013-07-13 10:53:00
6:53 AM,60.1,55.0,83,30.04,10.0,Calm,Calm,-,N/A,,Clear,0,2013-07-13 11:53:00
7:53 AM,66.9,57.0,70,30.05,10.0,SSE,3.5,-,N/A,,Clear,150,2013-07-13 12:53:00
8:53 AM,73.0,55.9,55,30.07,-9999.0,SE,6.9,-,N/A,,Clear,140,2013-07-13 13:53:00
9:53 AM,75.9,57.0,52,30.07,-9999.0,SSE,10.4,-,N/A,,Clear,160,2013-07-13 14:53:00
10:53 AM,80.1,55.0,42,30.06,-9999.0,Variable,5.8,-,N/A,,Clear,0,2013-07-13 15:53:00
11:53 AM,82.0,55.0,39,30.05,10.0,Variable,4.6,-,N/A,,Clear,0,2013-07-13 16:53:00
12:53 PM,84.9,54.0,34,30.03,10.0,Variable,5.8,-,N/A,,Clear,0,2013-07-13 17:53:00
1:53 PM,84.0,51.1,32,30.03,10.0,Calm,Calm,-,N/A,,Clear,0,2013-07-13 18:53:00
2:53 PM,84.0,53.1,34,30.01,10.0,NNE,8.1,-,N/A,,Clear,30,2013-07-13 19:53:00
3:53 PM,84.0,48.9,29,30.01,10.0,ENE,5.8,-,N/A,,Clear,60,2013-07-13 20:53:00
4:53 PM,82.9,50.0,32,30.00,10.0,ENE,6.9,-,N/A,,Clear,60,2013-07-13 21:53:00
5:53 PM,82.0,53.1,37,30.00,10.0,SE,5.8,-,N/A,,Clear,130,2013-07-13 22:53:00
6:53 PM,80.1,55.0,42,29.99,10.0,Calm,Calm,-,N/A,,Clear,0,2013-07-13 23:53:00
7:53 PM,73.9,59.0,59,29.99,-9999.0,Calm,Calm,-,N/A,,Clear,0,2013-07-14 00:53:00
8:53 PM,73.0,57.9,59,29.98,-9999.0,Calm,Calm,-,N/A,,Clear,0,2013-07-14 01:53:00
9:53 PM,72.0,57.9,61,29.98,-9999.0,NNE,3.5,-,N/A,,Clear,20,2013-07-14 02:53:00
10:53 PM,71.1,57.9,63,30.01,10.0,ESE,6.9,-,N/A,,Clear,110,2013-07-14 03:53:00
11:53 PM,71.1,60.1,68,30.01,10.0,ESE,8.1,-,N/A,,Clear,120,2013-07-14 04:53:00